Date,TemperatureHighF,TemperatureAvgF,TemperatureLowF,DewpointHighF,DewpointAvgF,DewpointLowF,HumidityHigh,HumidityAvg,HumidityLow,PressureMaxIn,PressureMinIn,WindSpeedMaxMPH,WindSpeedAvgMPH,GustSpeedMaxMPH,PrecipitationSumIn
2013-1-1,53.0,38.6,27.0,32.0,27.5,21.0,94,70,29,30.30,30.13,5,1,11,0.19
2013-1-2,60.0,44.3,31.0,31.0,26.4,21.0,89,56,24,30.17,29.99,9,3,24,0.01
2013-1-3,59.0,44.5,31.0,31.0,28.9,26.0,88,58,31,30.18,30.02,10,4,23,0.01
2013-1-4,56.0,46.9,33.0,30.0,27.2,25.0,82,47,31,30.26,30.16,11,6,27,0.00
2013-1-5,62.0,43.2,28.0,30.0,25.6,15.0,90,57,17,30.35,30.23,3,1,8,0.00
2013-1-6,65.0,46.3,32.0,28.0,22.7,15.0,71,44,15,30.23,29.94,5,1,10,0.00
2013-1-7,58.0,43.2,30.0,31.0,28.2,25.0,85,58,32,29.96,29.82,5,1,11,0.00
2013-1-8,59.0,43.0,30.0,32.0,29.0,26.0,88,61,31,30.14,29.92,3,0,7,0.00
2013-1-9,70.0,49.5,31.0,29.0,21.1,12.0,83,43,11,30.23,30.03,10,3,22,0.00
2013-1-10,68.0,52.2,36.0,33.0,24.0,21.0,60,36,18,30.06,29.79,11,2,20,0.00
2013-1-11,54.0,39.5,29.0,36.0,24.5,13.0,91,59,29,30.06,29.84,12,4,24,0.04
2013-1-12,46.0,32.4,21.0,19.0,13.9,4.0,84,51,18,30.19,30.03,8,2,18,0.00
2013-1-13,48.0,32.0,19.0,16.0,10.4,-4.0,77,46,12,30.21,30.06,6,1,12,0.00
2013-1-14,44.0,30.5,19.0,16.0,10.2,4.0,77,46,22,30.30,30.12,8,2,17,0.00
2013-1-15,45.0,29.6,15.0,11.0,5.8,-2.0,73,41,14,30.47,30.30,3,1,8,0.00
2013-1-16,61.0,41.3,22.0,15.0,9.4,4.0,55,31,12,30.46,30.24,8,2,18,0.00
2013-1-17,67.0,55.2,36.0,17.0,14.9,11.0,41,22,13,30.25,30.11,12,7,28,0.00
2013-1-18,74.0,56.6,37.0,23.0,18.7,15.0,49,25,11,30.18,30.03,8,2,19,0.00
2013-1-19,76.0,52.3,31.0,27.0,22.5,19.0,63,36,13,30.23,30.09,4,1,9,0.00
2013-1-20,77.0,54.6,36.0,40.0,28.7,25.0,65,40,19,30.16,29.98,4,0,8,0.00
2013-1-21,79.0,57.0,39.0,36.0,31.9,29.0,69,43,20,30.09,29.95,6,1,13,0.00
2013-1-22,80.0,58.0,39.0,36.0,31.4,28.0,72,42,15,30.15,30.03,3,1,10,0.00
2013-1-23,81.0,59.4,41.0,34.0,30.9,28.0,61,37,17,30.18,30.05,3,1,8,0.00
2013-1-24,65.0,57.9,51.0,53.0,43.6,32.0,82,60,39,30.19,30.09,2,0,7,0.03
2013-1-25,77.0,62.4,48.0,51.0,47.4,44.0,88,61,33,30.14,29.92,2,0,7,0.01
2013-1-26,68.0,60.1,53.0,59.0,52.5,48.0,95,78,51,29.94,29.84,9,2,30,0.74
2013-1-27,65.0,58.1,50.0,52.0,49.5,47.0,96,74,53,29.99,29.88,5,1,10,0.02
2013-1-28,56.0,51.4,44.0,49.0,41.3,29.0,89,69,49,29.99,29.88,17,5,29,0.11
2013-1-29,51.0,43.1,36.0,35.0,27.5,20.0,81,57,31,30.22,29.98,12,5,24,0.01
2013-1-30,57.0,42.8,29.0,30.0,25.8,19.0,89,56,23,30.40,30.22,6,1,11,0.00
2013-1-31,63.0,49.5,31.0,37.0,31.3,25.0,83,54,28,30.25,30.12,5,1,10,0.00
2013-2-1,72.0,50.0,31.0,36.0,30.3,23.0,88,55,16,30.24,30.12,4,1,9,0.00
2013-2-2,76.0,53.5,35.0,40.0,31.3,21.0,85,51,13,30.25,30.09,5,1,10,0.00
2013-2-3,69.0,57.7,48.0,40.0,36.1,28.0,71,48,23,30.13,29.92,3,0,6,0.00
2013-2-4,70.0,55.4,44.0,42.0,39.7,38.0,82,58,33,30.01,29.90,4,1,9,0.00
2013-2-5,73.0,55.9,40.0,45.0,40.0,34.0,89,60,24,30.01,29.87,5,1,11,0.00
2013-2-6,71.0,55.3,43.0,44.0,39.5,35.0,87,59,30,30.01,29.87,10,2,19,0.00
2013-2-7,71.0,53.9,38.0,40.0,36.2,30.0,87,55,24,30.09,29.93,4,1,10,0.00
2013-2-8,68.0,54.6,40.0,35.0,28.1,18.0,75,42,15,29.94,29.76,11,3,22,0.00
2013-2-9,51.0,44.5,36.0,38.0,29.9,23.0,89,59,34,30.06,29.77,14,3,24,0.03
2013-2-10,56.0,41.5,27.0,29.0,23.9,18.0,87,55,23,30.09,29.96,5,1,11,0.01
2013-2-11,51.0,37.7,29.0,37.0,29.3,22.0,94,74,40,30.20,30.00,11,1,23,0.24
2013-2-12,52.0,40.4,30.0,36.0,32.3,29.0,96,76,45,30.33,30.21,4,1,11,0.02
2013-2-13,60.0,43.2,28.0,32.0,27.9,23.0,91,61,24,30.26,30.11,5,1,10,0.00
2013-2-14,66.0,47.1,30.0,33.0,28.8,24.0,90,55,21,30.18,30.03,6,1,12,0.00
2013-2-15,73.0,53.6,38.0,33.0,25.8,15.0,78,42,12,30.24,30.13,10,3,21,0.00
2013-2-16,74.0,62.7,46.0,22.0,11.9,5.0,39,15,7,30.24,29.94,12,6,33,0.00
2013-2-17,73.0,56.7,37.0,23.0,16.0,5.0,51,24,7,29.95,29.80,10,3,19,0.00
2013-2-18,70.0,52.3,36.0,27.0,21.3,11.0,62,35,10,30.04,29.90,5,1,9,0.00
2013-2-19,71.0,55.8,39.0,31.0,20.1,11.0,56,29,10,29.93,29.68,11,3,22,0.00
2013-2-20,53.0,41.7,33.0,38.0,33.5,30.0,95,74,44,29.98,29.66,14,3,24,0.16
2013-2-21,53.0,42.1,33.0,37.0,33.9,32.0,96,74,49,30.11,29.97,4,1,12,0.33
2013-2-22,56.0,44.7,35.0,39.0,33.9,29.0,94,68,40,30.17,30.02,8,2,21,0.01
2013-2-23,65.0,46.5,30.0,35.0,28.5,18.0,91,57,18,30.17,29.85,6,1,12,0.00
2013-2-24,51.0,42.7,35.0,34.0,21.7,6.0,85,50,16,30.11,29.81,16,5,31,0.00
2013-2-25,58.0,42.5,27.0,27.0,20.2,16.0,74,44,22,30.26,30.06,5,1,12,0.00
2013-2-26,64.0,45.8,29.0,27.0,22.1,15.0,82,46,17,30.09,29.96,10,2,18,0.00
2013-2-27,64.0,47.1,29.0,25.0,16.0,6.0,73,36,11,30.22,30.09,7,2,15,0.00
2013-2-28,68.0,48.6,30.0,22.0,17.0,8.0,64,33,10,30.32,30.21,7,2,17,0.00
2013-3-1,74.0,53.4,33.0,28.0,20.5,14.0,59,32,11,30.34,30.19,4,1,9,0.00
2013-3-2,83.0,60.2,37.0,31.0,25.8,12.0,68,34,7,30.29,30.06,4,1,9,0.00
2013-3-3,80.0,62.8,42.0,32.0,25.5,15.0,62,30,9,30.08,29.86,9,2,17,0.00
2013-3-4,72.0,63.2,49.0,33.0,29.2,19.0,51,29,17,30.00,29.80,13,4,26,0.00
2013-3-5,80.0,60.6,43.0,34.0,30.4,24.0,65,37,13,30.07,29.92,6,1,15,0.00
2013-3-6,81.0,64.8,49.0,38.0,32.3,23.0,60,33,15,29.97,29.80,7,1,16,0.00
2013-3-7,80.0,62.5,45.0,33.0,27.5,15.0,56,31,9,29.91,29.80,9,2,22,0.00
2013-3-8,69.0,57.9,45.0,51.0,38.3,29.0,68,49,29,29.93,29.69,18,6,34,0.06
2013-3-9,53.0,47.3,43.0,39.0,36.3,33.0,79,66,54,30.09,29.93,8,3,17,0.01
2013-3-10,66.0,52.0,39.0,40.0,34.3,27.0,87,55,25,30.16,30.04,6,1,14,0.01
2013-3-11,73.0,54.7,36.0,33.0,31.1,28.0,75,45,20,30.17,29.98,5,2,12,0.00
2013-3-12,82.0,59.9,37.0,35.0,31.5,25.0,75,41,13,30.07,29.93,5,1,10,0.00
2013-3-13,88.0,66.8,43.0,37.0,28.9,19.0,69,32,8,30.09,29.93,6,2,17,0.00
2013-3-14,92.0,70.6,48.0,31.0,22.2,6.0,51,22,4,30.05,29.89,9,2,18,0.00
2013-3-15,93.0,71.0,49.0,29.0,23.6,0.0,43,21,3,29.96,29.80,13,2,24,0.00
2013-3-16,89.0,70.3,48.0,31.0,22.4,8.0,45,20,5,29.84,29.62,11,3,23,0.00
2013-3-17,83.0,66.6,49.0,27.0,23.4,18.0,36,21,9,29.85,29.70,15,4,27,0.00
2013-3-18,81.0,65.8,50.0,36.0,26.7,17.0,46,26,9,29.93,29.83,8,2,18,0.00
2013-3-19,80.0,65.3,49.0,38.0,30.2,25.0,51,29,14,29.98,29.86,10,3,20,0.00
2013-3-20,83.0,67.7,49.0,34.0,30.5,26.0,51,28,13,29.98,29.80,8,2,15,0.00
2013-3-21,77.0,65.2,51.0,36.0,32.7,28.0,50,31,19,29.80,29.65,8,2,16,0.00
2013-3-22,80.0,67.8,52.0,35.0,32.6,27.0,48,29,16,29.73,29.58,11,4,23,0.00
2013-3-23,75.0,61.8,47.0,34.0,22.1,2.0,56,26,6,29.93,29.73,15,4,27,0.00
2013-3-24,77.0,59.0,39.0,16.0,8.4,-3.0,35,16,5,29.98,29.82,11,3,21,0.00
2013-3-25,80.0,62.3,41.0,20.0,15.8,11.0,36,18,9,29.97,29.83,7,2,16,0.00
2013-3-26,85.0,66.8,47.0,24.0,17.3,5.0,39,18,5,29.93,29.75,9,2,17,0.00
2013-3-27,86.0,75.2,59.0,27.0,20.2,15.0,21,13,8,29.92,29.80,9,4,17,0.00
2013-3-28,84.0,69.5,49.0,35.0,23.5,18.0,36,19,9,29.97,29.86,7,2,15,0.00
2013-3-29,86.0,70.2,51.0,38.0,23.7,14.0,36,19,8,30.01,29.88,7,2,18,0.00
2013-3-30,83.0,69.1,54.0,31.0,23.1,-99.9,31,20,8,29.98,29.83,7,1,17,0.00
2013-3-31,86.0,67.6,48.0,33.0,28.5,24.0,49,26,12,29.98,29.82,9,2,16,0.00
2013-4-1,83.0,67.2,49.0,38.0,30.2,23.0,48,27,16,29.94,29.79,8,2,18,0.00
2013-4-2,78.0,64.0,46.0,28.0,23.7,17.0,45,24,11,29.90,29.79,12,3,23,0.00
2013-4-3,82.0,65.3,45.0,30.0,27.2,22.0,47,26,13,29.98,29.87,7,2,15,0.00
2013-4-4,89.0,69.6,48.0,33.0,24.3,11.0,49,23,6,30.01,29.83,6,1,14,0.00
2013-4-5,88.0,72.3,54.0,33.0,28.5,24.0,37,21,12,29.90,29.74,11,3,23,0.00
2013-4-6,85.0,71.3,52.0,37.0,31.2,25.0,47,24,12,29.89,29.72,7,2,17,0.00
2013-4-7,86.0,76.6,64.0,35.0,29.6,25.0,31,19,11,29.80,29.61,7,3,19,0.00
2013-4-8,83.0,69.7,49.0,41.0,35.4,27.0,75,30,14,29.65,29.32,17,7,37,0.05
2013-4-9,65.0,54.5,46.0,46.0,35.8,24.0,93,56,24,29.87,29.49,12,4,23,0.14
2013-4-10,68.0,56.1,40.0,35.0,30.1,25.0,75,41,20,29.97,29.87,10,3,20,0.00
2013-4-11,80.0,61.9,41.0,34.0,29.8,24.0,69,34,14,29.97,29.72,9,2,17,0.00
2013-4-12,83.0,65.1,49.0,33.0,27.6,22.0,47,27,11,29.76,29.66,7,2,17,0.00
2013-4-13,85.0,68.8,47.0,32.0,27.0,21.0,52,24,10,29.80,29.63,9,3,18,0.00
2013-4-14,85.0,70.6,54.0,38.0,31.5,24.0,44,26,11,29.73,29.58,11,4,19,0.00
2013-4-15,87.0,74.0,62.0,40.0,32.8,24.0,37,24,11,29.71,29.58,12,6,25,0.00
2013-4-16,86.0,73.3,61.0,41.0,32.9,26.0,39,24,12,29.72,29.59,11,6,25,0.00
2013-4-17,67.0,61.1,54.0,41.0,27.4,11.0,53,31,14,29.95,29.67,12,6,25,0.00
2013-4-18,73.0,56.4,37.0,18.0,13.2,9.0,41,20,9,30.10,29.95,7,2,18,0.00
2013-4-19,81.0,62.0,38.0,16.0,5.2,-8.0,35,14,3,30.12,29.89,9,2,22,0.00
2013-4-20,85.0,65.5,41.0,22.0,13.2,5.0,32,15,6,29.93,29.81,11,2,21,0.00
2013-4-21,90.0,69.8,47.0,26.0,19.0,9.0,38,18,5,29.98,29.83,7,2,15,0.00
2013-4-22,91.0,72.9,51.0,31.0,19.5,6.0,34,16,4,29.90,29.68,8,2,21,0.00
2013-4-23,89.0,72.3,51.0,28.0,22.0,16.0,34,17,7,29.80,29.68,9,2,20,0.00
2013-4-24,90.0,75.1,54.0,33.0,25.5,17.0,38,18,7,29.84,29.71,7,2,17,0.00
2013-4-25,85.0,73.4,60.0,34.0,27.5,16.0,33,20,8,29.93,29.75,13,5,27,0.00
2013-4-26,87.0,68.7,45.0,35.0,28.4,25.0,50,25,11,30.03,29.91,8,2,19,0.00
2013-4-27,92.0,72.7,50.0,33.0,25.7,13.0,44,20,6,29.99,29.79,6,2,14,0.00
2013-4-28,95.0,76.3,53.0,33.0,20.1,10.0,37,16,5,29.83,29.64,7,2,18,0.00
2013-4-29,98.0,77.8,53.0,28.0,17.3,9.0,30,13,4,29.74,29.55,6,2,19,0.00
2013-4-30,97.0,79.3,57.0,29.0,20.6,12.0,29,13,5,29.70,29.56,8,3,23,0.00
2013-5-1,91.0,76.1,57.0,30.0,22.3,9.0,32,15,5,29.87,29.70,9,3,17,0.00
2013-5-2,91.0,75.4,53.0,33.0,20.6,8.0,36,15,5,30.00,29.88,15,5,37,0.00
2013-5-3,87.0,73.7,62.0,23.0,18.3,11.0,21,13,6,29.96,29.70,15,8,35,0.00
2013-5-4,93.0,76.3,55.0,30.0,21.7,13.0,32,15,6,29.74,29.59,9,3,19,0.00
2013-5-5,90.0,77.0,58.0,40.0,30.3,23.0,34,19,9,29.83,29.65,11,4,24,0.00
2013-5-6,84.0,70.9,57.0,54.0,42.9,34.0,86,41,17,29.88,29.78,9,3,19,0.03
2013-5-7,85.0,69.8,55.0,45.0,37.0,24.0,51,33,12,29.91,29.76,10,4,23,0.02
2013-5-8,81.0,67.2,51.0,43.0,38.4,31.0,63,38,18,29.95,29.83,7,2,14,0.00
2013-5-9,83.0,70.2,53.0,45.0,35.4,16.0,60,32,8,29.92,29.79,6,2,16,0.00
2013-5-10,88.0,70.1,53.0,42.0,34.3,-99.9,53,30,14,29.97,29.82,11,2,21,0.00
2013-5-11,88.0,75.3,59.0,41.0,36.1,-99.9,44,26,14,29.99,29.89,12,4,27,0.00
2013-5-12,92.0,78.7,67.0,41.0,35.2,29.0,34,22,11,30.03,29.82,10,4,23,0.00
2013-5-13,95.0,80.4,60.0,35.0,28.9,19.0,33,17,8,29.96,29.78,9,3,23,0.00
2013-5-14,98.0,83.2,67.0,48.0,33.4,21.0,49,18,9,29.84,29.68,7,2,16,0.00
2013-5-15,98.0,82.2,64.0,40.0,34.7,31.0,35,20,10,29.87,29.68,10,4,23,0.00
2013-5-16,98.0,78.0,64.0,41.0,16.2,-99.9,32,16,7,29.80,29.62,10,3,19,0.00
2013-5-17,95.0,79.0,59.0,41.0,26.3,-99.9,40,18,6,29.78,29.65,9,3,21,0.00
2013-5-18,91.0,77.3,60.0,41.0,30.0,21.0,37,20,9,29.82,29.70,9,3,21,0.00
2013-5-19,90.0,76.9,60.0,47.0,37.8,25.0,52,28,10,29.80,29.65,9,3,21,0.00
2013-5-20,91.0,77.7,57.0,43.0,31.5,21.0,48,22,9,29.79,29.67,11,4,25,0.00
2013-5-21,95.0,77.6,55.0,30.0,21.2,9.0,33,14,4,29.80,29.65,7,2,14,0.00
2013-5-22,99.0,80.3,57.0,35.0,24.6,16.0,32,15,6,29.72,29.54,7,2,19,0.00
2013-5-23,99.0,82.3,62.0,41.0,29.7,15.0,35,17,5,29.72,29.61,8,3,18,0.00
2013-5-24,98.0,81.4,61.0,45.0,29.7,9.0,42,19,4,29.80,29.69,8,2,16,0.00
2013-5-25,98.0,81.1,59.0,42.0,27.2,8.0,43,19,4,29.82,29.70,8,3,18,0.00
2013-5-26,97.0,78.6,58.0,34.0,19.3,0.0,33,14,3,29.85,29.72,9,2,17,0.00
2013-5-27,98.0,77.8,56.0,28.0,17.1,-6.0,28,13,2,29.80,29.60,7,2,16,0.00
2013-5-28,94.0,79.0,58.0,37.0,25.7,15.0,33,16,6,29.67,29.49,10,4,20,0.00
2013-5-29,94.0,79.7,61.0,51.0,36.4,32.0,38,23,12,29.65,29.53,8,3,19,0.00
2013-5-30,96.0,83.3,65.0,55.0,45.1,36.0,59,30,13,29.72,29.60,7,3,18,0.00
2013-5-31,99.0,84.2,68.0,59.0,47.9,34.0,62,33,11,29.74,29.62,9,2,17,0.00
2013-6-1,106.0,86.7,62.0,45.0,37.7,25.0,43,21,6,29.71,29.54,5,1,12,0.00
2013-6-2,106.0,89.8,69.0,46.0,38.9,28.0,38,19,8,29.66,29.49,9,3,22,0.00
2013-6-3,103.0,87.9,65.0,43.0,31.1,17.0,37,16,5,29.70,29.57,8,3,33,0.00
2013-6-4,103.0,87.3,69.0,47.0,36.5,28.0,32,18,8,29.72,29.60,8,3,20,0.00
2013-6-5,101.0,84.6,63.0,43.0,28.6,16.0,36,16,5,29.75,29.61,8,2,17,0.00
2013-6-6,104.0,85.7,61.0,33.0,29.6,25.0,31,15,8,29.71,29.56,7,2,15,0.00
2013-6-7,108.0,88.0,65.0,37.0,30.8,25.0,31,15,6,29.67,29.48,8,2,16,0.00
2013-6-8,104.0,89.7,67.0,41.0,28.4,19.0,27,13,5,29.68,29.57,12,4,22,0.00
2013-6-9,104.0,87.9,69.0,44.0,30.8,13.0,34,16,4,29.75,29.61,10,3,20,0.00
2013-6-10,107.0,89.0,65.0,43.0,30.4,19.0,31,15,5,29.77,29.61,7,2,19,0.00
2013-6-11,109.0,90.8,68.0,39.0,27.7,11.0,27,13,3,29.74,29.60,10,3,20,0.00
2013-6-12,108.0,91.0,68.0,39.0,33.0,28.0,29,14,7,29.79,29.61,10,3,21,0.00
2013-6-13,103.0,90.0,74.0,52.0,43.9,35.0,36,22,11,29.76,29.59,12,3,22,0.00
2013-6-14,103.0,89.5,74.0,58.0,51.0,44.0,47,29,17,29.72,29.54,8,2,17,0.00
2013-6-15,101.0,85.7,75.0,69.0,55.3,44.0,69,37,22,29.75,29.61,10,1,28,0.46
2013-6-16,104.0,87.0,68.0,65.0,51.8,33.0,85,39,11,29.80,29.65,7,2,19,0.46
2013-6-17,103.0,89.2,65.0,50.0,35.3,27.0,52,18,8,29.80,29.63,6,2,16,0.00
2013-6-18,106.0,89.2,63.0,41.0,18.7,-19.0,44,14,1,29.73,29.58,7,2,17,0.00
2013-6-19,106.0,86.5,63.0,37.0,26.1,7.0,29,13,3,29.66,29.54,10,3,21,0.00
2013-6-20,104.0,81.9,66.0,41.0,29.6,5.0,35,19,3,29.69,29.58,6,2,15,0.00
2013-6-21,104.0,102.2,98.0,24.0,16.8,8.0,6,5,3,29.65,29.59,8,6,22,0.00
2013-6-22,104.0,94.3,65.0,35.0,24.2,14.0,31,9,4,29.74,29.58,9,3,19,0.00
2013-6-23,103.0,86.6,62.0,36.0,28.5,14.0,36,15,5,29.70,29.54,11,3,20,0.00
2013-6-24,103.0,88.0,66.0,39.0,30.8,14.0,30,15,5,29.72,29.60,10,4,22,0.00
2013-6-25,102.0,84.3,67.0,45.0,29.3,15.0,42,18,5,29.81,29.69,6,1,17,0.00
2013-6-26,103.0,85.2,65.0,34.0,26.6,13.0,28,14,4,29.89,29.76,8,2,18,0.00
2013-6-27,108.0,87.2,67.0,44.0,34.4,25.0,29,16,9,29.92,29.71,12,2,24,0.00
2013-6-28,110.0,92.8,69.0,42.0,38.2,34.0,31,16,9,29.80,29.62,5,1,12,0.00
2013-6-29,110.0,97.0,79.0,49.0,42.7,37.0,24,16,10,29.71,29.54,8,2,29,0.00
2013-6-30,110.0,95.2,78.0,67.0,50.7,46.0,67,24,13,29.78,29.47,10,3,26,0.02
2013-7-1,107.0,89.8,76.0,66.0,58.7,53.0,58,38,18,29.72,29.58,9,2,21,0.01
2013-7-2,102.0,90.0,72.0,66.0,58.5,52.0,77,37,23,29.87,29.65,14,4,34,0.03
2013-7-3,105.0,94.2,77.0,57.0,52.8,48.0,47,26,18,29.75,29.50,12,4,31,0.02
2013-7-4,104.0,93.8,80.0,60.0,55.2,50.0,48,29,19,29.69,29.50,11,4,20,0.00
2013-7-5,100.0,84.9,74.0,70.0,62.7,56.0,81,50,30,29.71,29.54,9,1,23,0.02
2013-7-6,105.0,87.1,70.0,65.0,60.8,55.0,74,47,20,29.71,29.52,5,2,13,0.01
2013-7-7,110.0,89.0,75.0,72.0,61.9,57.0,74,44,19,29.67,29.51,9,2,23,0.61
2013-7-8,105.0,91.5,78.0,65.0,60.6,57.0,63,37,22,29.74,29.63,10,2,22,0.01
2013-7-9,100.0,89.0,77.0,71.0,65.9,60.0,82,48,32,29.86,29.67,10,3,22,0.04
2013-7-10,99.0,81.6,73.0,72.0,65.7,-99.9,89,63,36,29.85,29.70,6,1,12,0.11
2013-7-11,96.0,81.9,72.0,74.0,69.1,65.0,93,68,38,29.85,29.72,9,1,18,0.06
2013-7-12,87.0,79.4,76.0,72.0,67.6,63.0,81,68,52,29.86,29.74,7,2,20,0.22
2013-7-19,95.0,87.2,79.0,69.0,63.3,61.0,72,46,34,29.79,29.64,8,3,16,0.02
2013-7-20,97.0,78.4,73.0,71.0,66.6,-99.9,90,72,31,29.76,29.60,10,1,23,0.11
2013-7-21,94.0,82.7,72.0,71.0,67.2,63.0,94,63,38,29.80,29.70,8,2,18,0.07
2013-7-22,95.0,83.9,72.0,69.0,65.3,62.0,86,56,35,29.84,29.71,9,2,22,0.00
2013-7-23,98.0,85.9,73.0,65.0,62.8,59.0,71,48,31,29.85,29.68,10,2,22,0.00
2013-7-24,94.0,84.2,77.0,72.0,65.2,61.0,84,54,38,29.78,29.68,5,1,14,0.03
2013-7-25,94.0,81.9,76.0,72.0,68.8,65.0,86,66,44,29.87,29.77,6,1,15,0.03
2013-7-26,98.0,82.0,74.0,74.0,69.8,64.0,90,70,35,29.94,29.85,8,1,15,0.14
2013-7-27,95.0,83.6,72.0,71.0,67.2,62.0,89,61,34,29.89,29.72,6,1,16,0.11
2013-7-28,102.0,87.2,72.0,68.0,59.4,47.0,82,46,21,29.75,29.62,7,2,16,0.00
2013-7-29,102.0,86.5,70.0,54.0,50.4,47.0,52,31,18,29.85,29.72,6,1,13,0.00
2013-7-30,106.0,88.9,73.0,58.0,54.1,52.0,54,33,18,29.95,29.78,9,2,17,0.00
2013-7-31,106.0,90.1,78.0,63.0,57.7,53.0,50,35,19,29.88,29.75,8,2,16,0.00
2013-8-1,95.0,86.8,79.0,63.0,60.7,58.0,58,42,35,29.82,29.73,8,2,18,0.00
2013-8-2,95.0,83.7,75.0,66.0,63.4,61.0,64,51,37,29.82,29.74,5,1,10,0.00
2013-8-3,103.0,88.3,71.0,64.0,59.5,56.0,73,41,22,29.86,29.71,7,2,16,0.00
2013-8-4,96.0,86.9,77.0,66.0,59.5,55.0,62,40,26,29.85,29.73,4,0,9,0.00
2013-8-5,96.0,83.1,70.0,68.0,59.9,55.0,92,49,27,29.91,29.72,10,3,18,0.32
2013-8-6,87.0,75.9,70.0,69.0,66.5,61.0,94,74,50,29.90,29.82,6,1,15,0.01
2013-8-7,96.0,81.0,67.0,67.0,60.8,51.0,93,56,24,29.93,29.78,9,2,18,0.00
2013-8-8,100.0,82.0,67.0,60.0,52.1,41.0,72,41,14,29.84,29.69,6,1,15,0.00
2013-8-9,103.0,85.2,64.0,50.0,46.7,40.0,56,30,14,29.80,29.68,7,2,14,0.00
2013-8-10,95.0,81.5,72.0,47.0,44.1,40.0,39,28,15,29.86,29.80,2,0,5,0.00
2013-8-11,102.0,89.0,74.0,64.0,57.0,40.0,48,35,26,29.82,29.65,10,3,26,0.00
2013-8-12,103.0,87.2,70.0,62.0,54.6,35.0,64,38,14,29.77,29.65,8,2,17,0.00
2013-8-13,105.0,86.8,69.0,48.0,39.0,-99.9,41,21,11,29.84,29.67,8,2,17,0.00
2013-8-14,106.0,87.3,75.0,62.0,49.2,-99.9,51,30,16,29.80,29.65,7,2,23,0.00
2013-8-15,105.0,78.5,75.0,62.0,33.7,-99.9,60,32,18,29.81,29.67,7,2,15,0.00
2013-8-16,108.0,87.5,76.0,64.0,48.5,-99.9,54,32,14,29.80,29.65,5,1,15,0.24
2013-8-17,106.0,88.2,73.0,67.0,61.8,55.0,79,48,19,29.81,29.70,4,1,10,0.24
2013-8-21,98.0,85.0,75.0,64.0,60.4,57.0,67,46,27,29.82,29.70,7,2,14,0.01
2013-8-22,103.0,84.4,73.0,63.0,59.2,57.0,62,45,22,29.82,29.63,9,2,23,0.00
2013-8-23,101.0,84.4,69.0,63.0,59.5,53.0,70,46,22,29.80,29.61,6,2,15,0.00
2013-8-24,93.0,79.1,71.0,69.0,59.1,-99.9,91,55,33,29.86,29.71,8,2,19,0.16
2013-8-25,94.0,77.7,72.0,73.0,69.7,65.0,95,79,40,29.87,29.77,6,1,16,0.07
2013-8-26,99.0,80.4,72.0,74.0,69.9,60.0,97,75,28,29.85,29.70,9,1,39,0.14
2013-8-27,97.0,77.9,67.0,71.0,65.9,57.0,96,74,30,29.77,29.73,6,2,14,0.14
2013-9-17,101.0,90.4,82.0,61.0,59.0,54.0,47,36,24,29.66,29.51,7,4,19,0.00
2013-9-18,84.0,77.8,71.0,57.0,51.7,43.0,58,42,25,29.61,29.57,1,0,5,0.00
2013-9-19,99.0,84.8,65.0,55.0,49.5,45.0,60,32,19,29.67,29.54,5,2,11,0.00
2013-9-20,99.0,83.6,66.0,58.0,51.8,43.0,57,35,22,29.73,29.60,6,2,16,0.00
2013-9-21,99.0,83.1,70.0,61.0,53.2,-99.9,64,40,22,29.74,29.55,7,1,17,0.00
2013-9-22,94.0,81.9,70.0,66.0,55.6,42.0,65,43,24,29.64,29.49,12,4,27,0.00
2013-9-23,90.0,74.3,56.0,46.0,42.1,39.0,60,34,18,29.83,29.65,4,1,10,0.00
2013-9-24,65.0,65.0,65.0,40.0,39.3,39.0,40,39,39,29.83,29.83,1,1,2,0.00
2013-10-9,78.0,75.1,72.0,47.0,44.6,42.0,39,34,28,29.64,29.62,6,4,18,0.00
2013-10-10,72.0,64.5,56.0,51.0,45.6,41.0,64,51,37,29.87,29.64,9,4,19,0.00
2013-10-12,85.0,64.6,46.0,41.0,34.6,-99.9,70,39,17,29.93,29.79,4,1,11,0.00
2013-10-13,88.0,71.6,52.0,47.0,40.7,37.0,60,35,18,29.92,29.78,9,3,20,0.00
2013-10-14,82.0,66.2,51.0,47.0,40.1,35.0,69,41,22,29.95,29.83,4,1,12,0.00
2013-10-15,83.0,65.2,49.0,44.0,35.0,30.0,60,35,17,29.90,29.78,7,1,15,0.00
2013-10-16,79.0,60.7,44.0,33.0,23.3,9.0,56,28,7,30.02,29.91,4,1,10,0.00
2013-10-17,80.0,59.7,40.0,28.0,21.6,16.0,48,26,9,30.05,29.87,4,1,10,0.00
2013-10-18,58.0,48.5,42.0,27.0,24.1,22.0,49,39,30,29.99,29.92,1,0,4,0.00
2013-10-19,70.0,55.4,53.0,20.0,9.2,-99.9,25,19,15,29.95,29.90,1,0,2,0.00
2013-10-20,84.0,62.8,43.0,26.0,20.0,17.0,43,22,9,29.96,29.80,9,1,16,0.00
2013-10-21,85.0,62.4,44.0,28.0,20.7,16.0,42,23,8,29.97,29.87,6,1,12,0.00
2013-10-22,90.0,70.7,45.0,29.0,22.1,16.0,41,19,7,30.01,29.85,10,2,24,0.00
2013-10-23,91.0,78.3,60.0,34.0,29.7,25.0,30,18,11,29.85,29.71,6,2,12,0.00
2013-10-24,91.0,71.6,51.0,35.0,30.9,28.0,44,25,12,29.88,29.77,6,1,19,0.00
2013-10-25,85.0,70.1,49.0,35.0,31.2,29.0,47,26,13,30.00,29.90,6,2,13,0.00
2013-10-26,87.0,65.1,45.0,35.0,28.0,-99.9,55,29,11,30.08,29.93,3,1,10,0.00
2013-10-27,88.0,71.7,56.0,39.0,29.9,25.0,44,23,11,29.95,29.69,6,1,13,0.00
2013-10-28,82.0,66.0,52.0,38.0,31.6,-99.9,53,31,15,29.86,29.75,9,2,23,0.00
2013-10-29,83.0,70.0,54.0,41.0,35.9,32.0,55,30,17,29.87,29.73,12,4,23,0.00
2013-10-30,69.0,56.1,46.0,44.0,35.6,27.0,71,49,24,30.03,29.83,9,2,20,0.00
2013-11-2,87.0,70.3,47.0,50.0,19.3,-99.9,68,18,8,30.04,29.79,7,2,24,0.04
2013-11-3,79.0,65.8,55.0,56.0,49.1,42.0,91,60,28,29.88,29.67,6,1,13,0.07
2013-11-4,79.0,64.1,49.0,53.0,46.0,42.0,81,55,29,29.79,29.64,8,2,19,0.00
2013-11-5,70.0,59.9,50.0,47.0,43.3,38.0,76,56,31,30.08,29.77,6,2,13,0.00
2013-11-6,76.0,59.2,39.0,40.0,26.7,4.0,85,41,7,30.24,30.08,8,3,21,0.00
2013-11-7,81.0,70.5,64.0,30.0,17.9,-4.0,23,14,6,30.14,29.96,10,6,25,0.00
2013-11-8,82.0,63.9,48.0,38.0,33.7,29.0,54,35,18,30.02,29.87,5,1,13,0.00
2013-11-24,60.0,51.5,45.0,44.0,41.8,38.0,89,71,51,30.14,30.05,6,2,14,0.02
2013-11-25,59.0,46.8,37.0,44.0,39.4,35.0,94,77,51,30.23,30.11,4,1,12,0.00
2013-11-26,65.0,55.5,41.0,41.0,33.0,26.0,93,46,28,30.27,30.13,11,6,25,0.00
2013-11-27,62.0,56.7,53.0,27.0,24.8,23.0,34,29,24,30.14,29.98,13,8,31,0.00
2013-11-28,72.0,55.4,38.0,39.0,32.7,26.0,76,46,24,30.07,29.95,6,1,15,0.00
2013-11-29,74.0,55.9,41.0,45.0,41.3,38.0,89,63,30,30.16,30.03,3,0,9,0.00
2013-11-30,70.0,54.8,45.0,49.0,43.1,-99.9,91,70,43,30.14,30.02,1,0,4,0.00
2013-12-6,53.0,40.0,29.0,33.0,27.8,24.0,94,66,34,30.22,30.09,3,1,9,0.01
2013-12-7,57.0,42.7,29.0,35.0,24.8,-99.9,93,57,22,30.13,30.00,8,2,15,0.01
2013-12-8,56.0,48.4,40.0,41.0,37.5,28.0,79,66,51,30.12,29.99,4,1,9,0.01
2013-12-9,51.0,41.9,32.0,37.0,27.3,22.0,81,59,32,30.31,30.06,5,1,10,0.00
2013-12-10,62.0,44.1,29.0,29.0,24.3,18.0,83,51,19,30.30,30.10,7,1,17,0.00
2013-12-11,73.0,53.9,34.0,42.0,34.3,28.0,81,51,31,30.21,30.09,7,2,18,0.00
2013-12-12,73.0,60.3,46.0,44.0,37.1,32.0,69,43,32,30.12,29.95,7,2,16,0.00